Change the Weather History Date:

Tuesday, May 7, 2013

  Actual Average Record
Temperature  
Mean Temperature 56 °F -  
Max Temperature 69 °F 58 °F 73 °F (2004)
Min Temperature 42 °F 41 °F 28 °F (2012)
Degree Days  
Heating Degree Days 10    
Growing Degree Days 6 (Base 50)    
Moisture  
Dew Point 42 °F    
Average Humidity 63    
Maximum Humidity 93    
Minimum Humidity 33    
Precipitation  
Precipitation 0.00 in 0.08 in - ()
Sea Level Pressure  
Sea Level Pressure 30.08 in    
Wind  
Wind Speed 7 mph ()    
Max Wind Speed 13 mph    
Max Gust Speed -    
Visibility 5.3 miles    
Events      
Averages and records for this station are not official NWS values.
T = Trace of Precipitation, MM = Missing Value Source: Averaged Metar Reports

Daily Weather History Graph

Daily Weather History Graph

Search for Another Location

Airport or City:

Trip Planner

Search our weather history database for the weather conditions in past years. The results will help you decide how hot, cold, wet, or windy it might be!

Date:

Astronomy

May. 07, 2013 Rise Set
Actual Time 4:56 AM CEST 9:29 PM CEST
Civil Twilight 3:58 AM CEST 10:28 PM CEST
Nautical Twilight 2:13 AM CEST 12:19 AM CEST
Astronomical Twilight Sun does not rise Sun does not rise
Moon 4:03 AM CEST (5/7) 6:39 PM CEST (5/7)
Length of Visible Light 18h 29m
Length of Day
16h 33m
Waning Crescent, 7% of the Moon is Illuminated
May 7
Waning Crescent
May 10
New
May 18
First Quarter
May 25
Full
May 31
Last Quarter

Hourly Weather History & Observations

Time (CEST) Temp. Windchill Dew Point Humidity Pressure Visibility Wind Dir Wind Speed Gust Speed Precip Events Conditions
12:20 AM 48.2 °F - 42.8 °F 82% 30.06 in 6.2 mi SSE 6.9 mph - N/A   Mostly Cloudy
12:50 AM 46.4 °F 42.4 °F 42.8 °F 87% 30.06 in 6.2 mi South 8.1 mph - N/A   Mostly Cloudy
1:20 AM 46.4 °F 41.5 °F 42.8 °F 87% 30.06 in 6.2 mi South 10.4 mph - N/A   Mostly Cloudy
1:50 AM 46.4 °F 41.9 °F 42.8 °F 87% 30.06 in 6.2 mi South 9.2 mph - N/A   Overcast
2:00 AM 47 °F - 44 °F 86%  in 6 mi South 6.7 mph - -   Mist
2:20 AM 46.4 °F 41.9 °F 42.8 °F 87% 30.06 in 5.6 mi South 9.2 mph - N/A   Overcast
2:50 AM 46.4 °F 42.9 °F 44.6 °F 93% 30.06 in 5.0 mi South 6.9 mph - N/A   Mostly Cloudy
3:20 AM 46.4 °F 42.4 °F 42.8 °F 87% 30.04 in 5.6 mi South 8.1 mph - N/A   Mostly Cloudy
3:50 AM 44.6 °F 40.7 °F 42.8 °F 93% 30.04 in 5.0 mi South 6.9 mph - N/A   Mostly Cloudy
4:20 AM 44.6 °F 41.4 °F 41.0 °F 87% 30.04 in 3.7 mi South 5.8 mph - N/A   Mostly Cloudy
4:50 AM 42.8 °F 39.3 °F 41.0 °F 93% 30.04 in 3.1 mi South 5.8 mph - N/A   Mostly Cloudy
5:20 AM 42.8 °F 39.3 °F 41.0 °F 93% 30.04 in 3.1 mi SSW 5.8 mph - N/A   Mostly Cloudy
5:50 AM 42.8 °F 39.3 °F 41.0 °F 93% 30.04 in 3.7 mi South 5.8 mph - N/A   Mostly Cloudy
6:20 AM 44.6 °F 41.4 °F 42.8 °F 93% 30.04 in 4.3 mi South 5.8 mph - N/A   Mostly Cloudy
6:50 AM 44.6 °F - 42.8 °F 93% 30.06 in 5.0 mi Variable 1.2 mph - N/A   Mostly Cloudy
7:20 AM 44.6 °F - 42.8 °F 93% 30.06 in 6.2 mi Calm Calm - N/A   Mostly Cloudy
7:50 AM 48.2 °F - 44.6 °F 87% 30.06 in 6.2 mi South 5.8 mph - N/A   Partly Cloudy
8:00 AM 48 °F - 45 °F 86%  in 6 mi SSW 8.9 mph - -   Partly Cloudy
8:20 AM 50.0 °F - 44.6 °F 82% 30.06 in 6.2 mi South 5.8 mph - N/A   Partly Cloudy
8:50 AM 51.8 °F - 44.6 °F 76% 30.06 in - South 5.8 mph - N/A   Clear
9:20 AM 53.6 °F - 44.6 °F 72% 30.06 in - South 8.1 mph - N/A   Clear
9:50 AM 55.4 °F - 44.6 °F 67% 30.06 in - South 10.4 mph - N/A   Clear
10:20 AM 57.2 °F - 46.4 °F 67% 30.09 in - South 11.5 mph - N/A   Clear
10:50 AM 59.0 °F - 46.4 °F 63% 30.09 in - South 9.2 mph - N/A   Clear
11:20 AM 60.8 °F - 42.8 °F 52% 30.09 in - SSW 10.4 mph - N/A   Clear
11:50 AM 62.6 °F - 42.8 °F 48% 30.09 in - SSW 11.5 mph - N/A   Clear
12:20 PM 62.6 °F - 42.8 °F 48% 30.09 in - South 8.1 mph - N/A   Clear
12:50 PM 64.4 °F - 41.0 °F 42% 30.09 in 6.2 mi South 8.1 mph - N/A   Partly Cloudy
1:20 PM 66.2 °F - 42.8 °F 43% 30.09 in - SW 8.1 mph - N/A   Clear
1:50 PM 64.4 °F - 39.2 °F 40% 30.09 in - WSW 6.9 mph - N/A   Clear
2:00 PM 65 °F - 43 °F 33%  in 47 mi SW 6.7 mph - -   Partly Cloudy
2:20 PM 66.2 °F - 39.2 °F 37% 30.09 in - SW 8.1 mph - N/A   Clear
2:50 PM 66.2 °F - 39.2 °F 37% 30.09 in - Variable 6.9 mph - N/A   Clear
3:20 PM 68.0 °F - 39.2 °F 35% 30.09 in - Variable 3.5 mph - N/A   Clear
3:50 PM 68.0 °F - 37.4 °F 33% 30.09 in - Variable 8.1 mph - N/A   Clear
4:20 PM 68.0 °F - 39.2 °F 35% 30.09 in - NW 4.6 mph - N/A   Clear
4:50 PM 66.2 °F - 39.2 °F 37% 30.09 in - Variable 4.6 mph - N/A   Clear
5:20 PM 68.0 °F - 39.2 °F 35% 30.09 in - WSW 4.6 mph - N/A   Clear
5:50 PM 69.8 °F - 41.0 °F 35% 30.09 in - Variable 1.2 mph - N/A   Clear
6:50 PM 68.0 °F - 42.8 °F 40% 30.09 in - SSW 9.2 mph - N/A   Clear
7:20 PM 66.2 °F - 42.8 °F 43% 30.09 in - SW 6.9 mph - N/A   Clear
7:50 PM 64.4 °F - 42.8 °F 45% 30.09 in - SSW 12.7 mph - N/A   Clear
8:00 PM 65 °F - 43 °F 33%  in 40 mi SW 8.9 mph - -   Partly Cloudy
8:20 PM 62.6 °F - 42.8 °F 48% 30.09 in - SSW 10.4 mph - N/A   Clear
8:50 PM 60.8 °F - 41.0 °F 48% 30.12 in - SSW 11.5 mph - N/A   Clear
9:20 PM 59.0 °F - 41.0 °F 51% 30.12 in - SSW 12.7 mph - N/A   Clear
9:50 PM 55.4 °F - 39.2 °F 54% 30.15 in - SSW 12.7 mph - N/A   Clear
10:20 PM 53.6 °F - 37.4 °F 54% 30.15 in - SW 5.8 mph - N/A   Clear
10:50 PM 51.8 °F - 37.4 °F 58% 30.15 in - SSW 8.1 mph - N/A   Clear
11:20 PM 51.8 °F - 37.4 °F 58% 30.15 in - North 3.5 mph - N/A   Clear
11:50 PM 50.0 °F - 39.2 °F 66% 30.15 in - Variable 1.2 mph - N/A   Clear